Zurück zum Katalog

COSMOS 2209

AktivMilitärGEO
NORAD 22112·PAYLOAD·🇷🇺 Russia

Gestartet Sep 10, 1992 von Baikonur Cosmodrome

Loading…

TLE

AktuellSource: Space-Track

Epoche: Sep 14, 2026, 05:40 UTC

1 22112U 92059A   26257.23631823 -.00000255  00000-0  00000-0 0  9996
2 22112  13.5253 341.9815 0011375 342.8056  35.7234  1.00172387124511

Verfolge COSMOS 2209 in Echtzeit mit AllMySat

Download on the App Store